"datetime","# probes","# resolvers","can_ipv6","can_ipv6_prbs","can_tcp","can_tcp_prbs","can_tcp6","can_tcp6_prbs","does_ecs","does_ecs_prbs","does_flagday","does_flagday_prbs","does_rov4","does_rov4_prbs","does_rov6","does_rov6_prbs","does_qnamemin","doesnt_qnamemin","does_qnamemin_prbs","doesnt_qnamemin_prbs","does_nxdomain","doesnt_nxdomain","does_nxdomain_prbs","doesnt_nxdomain_prbs","has_ta_19036","hasnt_ta_19036","has_ta_19036_prbs","hasnt_ta_19036_prbs","has_ta_20326","hasnt_ta_20326","has_ta_20326_prbs","hasnt_ta_20326_prbs","can_rsamd5","cannot_rsamd5","broken_rsamd5","can_rsamd5_prbs","cannot_rsamd5_prbs","broken_rsamd5_prbs","can_dsa","cannot_dsa","broken_dsa","can_dsa_prbs","cannot_dsa_prbs","broken_dsa_prbs","can_rsasha1","cannot_rsasha1","broken_rsasha1","can_rsasha1_prbs","cannot_rsasha1_prbs","broken_rsasha1_prbs","can_dsansec3","cannot_dsansec3","broken_dsansec3","can_dsansec3_prbs","cannot_dsansec3_prbs","broken_dsansec3_prbs","can_rsansec3","cannot_rsansec3","broken_rsansec3","can_rsansec3_prbs","cannot_rsansec3_prbs","broken_rsansec3_prbs","can_rsasha256","cannot_rsasha256","broken_rsasha256","can_rsasha256_prbs","cannot_rsasha256_prbs","broken_rsasha256_prbs","can_rsasha512","cannot_rsasha512","broken_rsasha512","can_rsasha512_prbs","cannot_rsasha512_prbs","broken_rsasha512_prbs","can_eccgost","cannot_eccgost","broken_eccgost","can_eccgost_prbs","cannot_eccgost_prbs","broken_eccgost_prbs","can_ecdsa256","cannot_ecdsa256","broken_ecdsa256","can_ecdsa256_prbs","cannot_ecdsa256_prbs","broken_ecdsa256_prbs","can_ecdsa384","cannot_ecdsa384","broken_ecdsa384","can_ecdsa384_prbs","cannot_ecdsa384_prbs","broken_ecdsa384_prbs","can_ed25519","cannot_ed25519","broken_ed25519","can_ed25519_prbs","cannot_ed25519_prbs","broken_ed25519_prbs","can_ed448","cannot_ed448","broken_ed448","can_ed448_prbs","cannot_ed448_prbs","broken_ed448_prbs","can_gost","cannot_gost","broken_gost","can_gost_prbs","cannot_gost_prbs","broken_gost_prbs","can_sha384","cannot_sha384","broken_sha384","can_sha384_prbs","cannot_sha384_prbs","broken_sha384_prbs","is_internal","is_forwarding","is_external","is_internal_prbs","is_forwarding_prbs","is_external_prbs"
2017-06-20T23:59:59Z,145,275,275,145,275,145,273,145,3,17,0,0,0,0,0,0,0,275,0,145,0,275,0,145,0,0,0,0,0,0,0,0,251,9,2,123,14,11,257,7,0,129,22,0,256,6,0,129,13,0,256,8,0,129,23,0,256,6,0,129,13,0,256,6,0,129,13,0,257,5,0,129,12,0,0,275,0,1,145,0,257,5,0,129,12,0,256,6,0,129,13,0,0,275,0,0,145,0,0,275,0,0,145,0,0,275,0,9,145,0,256,6,0,129,13,0,251,2,22,129,11,26
2017-06-21T23:59:59Z,152,289,289,152,289,152,286,152,5,19,0,0,0,0,0,0,0,289,0,152,0,289,0,152,0,0,0,0,0,0,0,0,262,11,3,128,16,13,269,9,0,134,25,0,270,6,0,135,13,0,268,10,0,134,26,0,269,7,0,135,14,0,269,7,0,135,14,0,269,7,0,135,14,0,0,289,0,1,152,0,270,6,0,135,13,0,270,6,0,135,13,0,0,289,0,0,152,0,0,289,0,0,152,0,0,289,0,10,152,0,270,6,0,135,13,0,260,3,26,134,12,27
2017-06-22T23:59:59Z,150,287,287,150,287,150,283,150,2,16,0,0,0,0,0,0,0,287,0,150,0,287,0,150,0,0,0,0,0,0,0,0,262,9,3,127,14,13,269,7,0,134,23,0,267,7,0,133,13,0,269,7,0,134,23,0,269,5,0,134,12,0,268,6,0,133,12,0,268,6,0,133,12,0,1,286,0,2,150,0,267,7,0,133,13,0,267,7,0,133,13,0,0,287,0,0,150,0,0,287,0,0,150,0,0,287,0,10,150,0,268,6,0,134,13,0,256,3,28,131,12,27
2017-06-23T23:59:59Z,151,288,288,151,287,151,285,151,3,16,0,0,0,0,0,0,0,288,0,151,0,288,0,151,0,0,0,0,0,0,0,0,262,10,3,127,14,13,269,8,0,134,23,0,269,6,0,134,12,0,269,8,0,134,23,0,269,6,0,134,12,0,269,6,0,134,12,0,268,7,0,134,13,0,0,288,0,1,151,0,269,6,0,134,12,0,268,7,0,134,13,0,0,288,0,0,151,0,0,288,0,0,151,0,0,288,0,10,151,0,269,6,0,135,13,0,256,3,29,132,12,27
2017-06-24T23:59:59Z,152,288,288,152,287,152,282,152,5,18,0,0,0,0,0,0,0,288,0,152,0,288,0,152,0,0,0,0,0,0,0,0,261,11,3,128,15,13,267,10,0,134,25,0,269,6,0,135,12,0,268,9,0,134,24,0,269,6,0,135,12,0,269,6,0,135,12,0,268,7,0,135,13,0,0,288,0,1,152,0,268,7,0,135,13,0,268,7,0,135,13,0,0,288,0,0,152,0,0,288,0,0,152,0,0,288,0,10,152,0,270,5,0,136,12,0,256,4,28,133,13,27
2017-06-25T23:59:59Z,151,286,286,151,286,151,286,151,3,17,0,0,0,0,0,0,1,285,1,150,0,286,0,151,0,0,0,0,0,0,0,0,258,12,3,127,16,14,264,11,0,133,26,1,265,8,0,134,14,1,265,10,0,133,25,1,265,8,0,134,14,1,266,7,0,134,13,1,265,8,0,134,14,1,0,286,0,1,151,1,266,7,0,134,13,1,265,8,0,134,14,1,0,286,0,0,151,1,0,286,0,0,151,1,0,286,0,10,151,1,267,6,0,135,13,1,258,3,25,133,12,26
2017-06-26T23:59:59Z,150,286,286,150,286,150,269,149,2,16,0,0,0,0,0,0,0,286,0,150,0,286,0,150,0,0,0,0,0,0,0,0,262,9,3,128,14,13,267,8,0,134,24,0,269,5,0,135,12,0,267,8,0,134,24,0,269,5,0,135,12,0,268,6,0,135,13,0,269,5,0,135,12,0,0,286,0,1,150,0,269,5,0,135,12,0,269,5,0,135,12,0,0,286,0,0,150,0,0,286,0,0,150,0,0,286,0,10,150,0,268,6,0,135,13,0,258,2,26,133,12,27
2017-06-27T23:59:58Z,149,285,285,149,285,149,272,148,0,15,0,0,0,0,0,0,0,285,0,149,0,285,0,149,0,0,0,0,0,0,0,0,261,9,3,128,14,13,268,6,0,134,22,0,269,4,0,135,11,0,268,6,0,134,22,0,269,4,0,135,11,0,268,5,0,135,12,0,269,4,0,135,11,0,0,285,0,1,149,0,269,4,0,135,11,0,269,4,0,135,11,0,0,285,0,0,149,0,0,285,0,0,149,0,0,285,0,10,149,0,269,4,0,135,11,0,258,1,26,133,11,27
2017-06-28T23:59:58Z,149,287,287,149,287,149,280,149,4,17,0,0,0,0,0,0,0,287,0,149,0,287,0,149,0,0,0,0,0,0,0,0,263,9,3,128,14,14,269,7,0,134,23,1,270,5,0,134,11,1,270,6,0,134,22,0,270,5,0,135,12,1,270,5,0,135,12,1,271,4,0,135,11,1,1,286,0,2,149,1,269,6,0,134,12,1,270,5,0,134,11,1,0,287,0,1,149,0,0,287,0,0,149,1,0,287,0,10,149,1,269,6,0,134,12,1,256,2,29,131,11,27
2017-06-29T23:59:59Z,150,287,287,150,287,150,276,149,3,17,0,0,0,0,0,0,1,286,1,149,0,287,0,150,0,0,0,0,0,0,0,0,261,11,3,127,15,13,267,9,0,133,24,0,269,6,0,134,12,0,268,8,0,133,23,0,268,7,0,134,13,0,269,6,0,134,12,0,268,7,0,134,13,0,0,287,0,1,150,0,268,7,0,134,13,0,268,7,0,134,13,0,0,287,0,0,150,0,0,287,0,0,150,0,0,287,0,10,150,0,269,6,0,134,12,0,255,3,29,132,12,27
2017-06-30T23:59:59Z,151,289,289,151,289,151,282,151,3,17,0,0,0,0,0,0,1,288,1,150,0,289,0,151,0,0,0,0,0,0,0,0,264,10,3,128,14,14,270,8,0,134,24,1,271,6,0,135,12,1,269,9,0,134,25,1,270,7,0,135,13,1,270,7,0,135,13,1,271,6,0,135,12,1,0,289,0,1,151,1,271,6,0,135,12,1,270,7,0,135,13,1,0,289,0,0,151,1,0,289,0,0,151,1,0,289,0,11,151,1,272,5,0,136,12,1,257,2,30,132,11,28
2017-07-01T23:59:58Z,148,287,287,148,287,148,273,148,0,14,0,0,0,0,0,0,0,287,0,148,0,287,0,148,0,0,0,0,0,0,0,0,261,10,3,126,13,13,269,6,0,133,21,0,269,5,0,133,11,0,269,6,0,133,21,0,269,5,0,133,11,0,269,5,0,133,11,0,269,5,0,133,11,0,0,287,0,1,148,0,269,5,0,133,11,0,269,5,0,133,11,0,0,287,0,0,148,0,0,287,0,0,148,0,0,287,0,10,148,0,270,4,0,133,10,0,256,1,30,130,11,28
2017-07-02T23:59:59Z,153,294,294,153,294,153,278,152,5,18,0,0,0,0,0,0,0,294,0,153,0,294,0,153,0,0,0,0,0,0,0,0,267,11,3,130,15,14,275,7,0,136,23,1,275,6,0,137,13,1,273,9,0,135,24,1,274,7,0,136,13,1,274,7,0,136,13,1,274,7,0,136,13,1,0,294,0,1,153,1,274,7,0,136,13,1,274,7,0,136,13,1,0,294,0,0,153,1,0,294,0,0,153,1,0,294,0,10,153,1,275,6,0,136,12,1,258,3,33,132,13,30
2017-07-03T23:59:59Z,151,291,291,151,291,151,275,151,4,18,0,0,0,0,0,0,0,291,0,151,0,291,1,151,0,0,0,0,0,0,0,0,265,11,2,128,15,14,271,8,0,134,24,2,271,7,0,134,14,2,272,7,0,135,24,2,273,5,0,135,13,2,273,5,0,135,13,2,272,6,0,134,13,2,1,290,0,2,151,2,272,6,0,134,13,2,271,7,0,134,14,2,0,291,0,0,151,2,0,291,0,0,151,2,0,291,0,10,151,2,271,7,0,134,14,2,255,4,32,129,15,30
2017-07-04T23:59:59Z,155,294,294,155,294,155,272,155,3,17,0,0,0,0,0,0,0,294,0,155,0,294,1,155,0,0,0,0,0,0,0,0,267,11,3,131,16,15,274,8,0,138,24,2,275,6,0,139,14,2,276,6,0,139,23,2,276,5,0,139,13,2,276,5,0,139,13,2,276,5,0,139,13,2,1,293,0,2,155,2,275,6,0,139,14,2,276,5,0,139,13,2,0,294,0,0,155,2,0,294,0,0,155,2,0,294,0,10,155,2,275,6,0,139,14,2,260,3,31,134,14,30
2017-07-05T23:59:59Z,156,297,297,156,297,156,281,156,4,18,0,0,0,0,0,0,1,296,1,155,0,297,1,156,0,0,0,0,0,0,0,0,269,13,2,131,17,15,276,9,0,137,25,2,275,9,0,137,15,2,275,10,0,137,26,2,276,8,0,137,14,2,276,8,0,137,14,2,275,9,0,137,15,2,0,297,0,1,156,2,276,8,0,137,14,2,275,9,0,137,15,2,0,297,0,0,156,2,0,297,0,0,156,2,0,297,0,11,156,2,276,8,0,138,15,2,261,4,32,134,14,32
2017-07-06T23:59:59Z,156,299,299,156,299,156,260,155,5,19,0,0,0,0,0,0,1,298,1,155,0,299,1,156,0,0,0,0,0,0,0,0,272,13,2,133,17,14,278,10,0,139,26,1,278,9,0,139,15,1,279,9,0,140,26,1,279,8,0,140,15,1,279,8,0,140,15,1,279,8,0,139,14,1,1,298,0,2,156,1,278,9,0,139,15,1,279,8,0,139,14,1,0,299,0,0,156,1,0,299,0,0,156,1,0,299,0,11,156,1,279,8,0,139,14,1,263,4,32,135,13,29
2017-07-07T23:59:58Z,155,298,298,155,298,155,298,155,3,17,0,0,0,0,0,0,1,297,1,154,0,298,1,155,0,0,0,0,0,0,0,0,272,11,3,132,15,15,279,8,0,139,24,1,279,7,0,139,13,1,279,8,0,139,24,1,278,8,0,139,14,1,279,7,0,139,13,2,278,8,0,139,14,1,0,298,0,1,155,1,278,8,0,139,14,1,279,7,0,139,13,1,0,298,0,0,155,1,0,298,0,0,155,1,0,298,0,11,155,1,279,7,0,139,13,1,266,3,29,137,12,29
2017-07-08T23:59:59Z,158,302,302,158,302,158,302,158,5,19,0,0,0,0,0,0,1,301,1,157,0,302,1,158,0,0,0,0,0,0,0,0,274,13,3,134,17,15,280,11,0,140,27,1,282,8,0,141,14,1,281,10,0,140,26,1,282,8,0,141,14,1,281,9,0,141,15,1,281,9,0,141,15,1,0,302,0,1,158,1,281,9,0,141,15,1,281,9,0,141,15,1,0,302,0,0,158,1,0,302,0,0,158,1,0,302,0,11,158,1,282,8,0,141,14,1,269,4,29,138,13,29
2017-07-09T23:59:58Z,158,304,304,158,304,158,304,158,4,18,0,0,0,0,0,0,1,303,1,157,0,304,1,158,0,0,0,0,0,0,0,0,275,13,4,134,17,16,282,11,0,140,27,1,284,8,0,141,14,1,283,10,0,140,25,1,283,9,0,141,15,1,283,9,0,141,15,1,284,8,0,141,14,1,0,304,0,1,158,1,284,8,0,141,14,1,284,8,0,141,14,1,0,304,0,0,158,1,0,304,0,0,158,1,0,304,0,11,158,1,284,8,0,141,14,1,271,4,29,139,13,29
2017-07-10T23:59:58Z,160,307,307,160,307,160,306,160,5,20,0,0,0,0,0,0,1,306,1,159,0,307,1,160,0,0,0,0,0,0,0,0,279,13,3,136,18,17,286,10,0,143,28,1,287,8,0,143,15,1,288,8,0,144,27,1,287,8,0,145,16,1,286,9,0,144,16,1,287,8,0,144,15,1,1,306,0,2,160,1,286,9,0,143,16,1,287,8,0,143,15,1,0,307,0,0,160,1,0,307,0,0,160,1,0,307,0,12,160,1,286,9,0,143,16,1,274,5,28,140,16,29
2017-07-11T23:59:59Z,159,304,304,159,304,159,304,159,5,19,0,0,0,0,0,0,1,303,1,158,0,304,1,159,0,0,0,0,0,0,0,0,276,13,3,136,18,15,285,9,0,143,26,1,283,9,1,141,15,2,282,11,0,141,27,2,282,10,0,142,16,1,283,9,0,142,15,1,282,10,0,142,16,1,2,302,0,3,159,1,282,10,0,141,16,1,282,10,0,141,16,1,0,304,0,0,159,1,0,304,0,0,159,1,0,304,0,11,159,1,283,9,0,141,15,1,270,5,29,139,14,29
2017-07-12T23:59:59Z,159,302,302,159,302,159,302,159,7,21,0,0,0,0,0,0,0,302,0,159,0,302,1,159,0,0,0,0,0,0,0,0,274,12,3,135,16,15,280,11,0,141,27,1,281,9,0,142,15,1,279,11,0,141,27,1,281,8,0,142,14,1,281,8,0,142,14,1,281,8,0,142,14,1,0,302,0,1,159,1,281,8,0,141,14,1,281,8,0,141,14,1,0,302,0,0,159,1,0,302,0,0,159,1,0,302,0,11,159,1,280,9,0,142,15,1,266,6,30,136,16,29
2017-07-13T23:59:59Z,158,300,298,157,300,158,298,157,4,19,0,0,0,0,0,0,1,299,1,157,0,300,1,158,0,0,0,0,0,0,0,0,271,13,3,134,18,15,277,12,0,140,29,1,277,11,0,140,17,1,275,13,0,139,29,1,277,10,0,140,16,1,276,11,0,140,17,1,277,10,0,140,16,1,0,300,0,1,158,1,276,11,0,139,17,1,276,11,0,139,17,1,0,300,0,0,158,1,0,300,0,0,158,1,0,300,0,11,158,1,277,10,0,140,16,1,265,4,31,136,15,30
2017-07-14T23:59:59Z,159,301,299,158,301,159,299,158,5,19,0,0,0,0,0,0,1,300,1,158,0,301,1,159,0,0,0,0,0,0,0,0,271,14,4,133,18,16,278,13,0,140,29,1,280,10,0,141,16,1,278,12,0,140,28,1,278,11,0,141,17,1,279,10,0,141,16,1,278,11,0,141,17,1,0,301,0,1,159,1,279,10,0,141,17,1,280,9,0,141,16,1,0,301,0,0,159,1,0,301,0,0,159,1,0,301,0,11,159,1,279,10,0,141,16,1,267,4,30,138,15,31
2017-07-15T23:59:59Z,155,295,293,154,295,155,293,154,5,19,0,0,0,0,0,0,0,295,0,155,0,295,0,155,0,0,0,0,0,0,0,0,266,13,4,131,17,14,273,12,0,137,27,0,274,10,0,138,15,0,273,11,0,137,26,0,274,9,0,138,14,0,274,9,0,138,14,0,273,10,0,138,15,0,0,295,0,1,155,0,273,10,0,137,15,0,273,10,0,137,15,0,0,295,0,0,155,0,0,295,0,0,155,0,0,295,0,10,155,0,274,9,0,138,14,0,261,4,30,134,15,30
2017-07-16T23:59:59Z,155,297,295,154,297,155,295,154,7,21,0,0,0,0,0,0,0,297,0,155,0,297,0,155,0,0,0,0,0,0,0,0,266,15,4,130,17,15,275,12,0,137,26,0,275,10,0,138,15,0,273,13,0,137,27,0,275,10,0,138,14,0,275,10,0,138,14,0,274,11,0,138,15,0,1,296,0,2,155,0,275,10,0,137,14,0,275,10,0,137,14,0,0,297,0,0,155,0,0,297,0,0,155,0,0,297,0,12,155,0,274,11,0,138,15,0,261,5,31,133,15,30
2017-07-17T23:59:59Z,154,292,290,153,292,154,290,153,4,19,0,0,0,0,0,0,0,292,0,154,0,292,0,154,0,0,0,0,0,0,0,0,262,14,4,129,17,15,272,10,0,138,25,0,272,9,0,139,15,0,270,11,0,138,26,0,270,10,0,138,15,0,270,10,0,138,15,0,270,10,0,138,15,0,0,292,0,1,154,0,271,9,0,137,14,0,271,9,0,137,14,0,0,292,0,0,154,0,0,292,0,0,154,0,0,292,0,12,154,0,270,10,0,138,15,0,258,4,30,133,15,31
2017-07-18T23:59:59Z,154,293,291,153,293,154,290,153,4,19,0,0,0,0,0,0,0,293,0,154,0,293,0,154,0,0,0,0,0,0,0,0,264,14,3,130,17,14,272,11,0,136,26,0,272,10,0,137,15,0,271,11,0,136,26,0,272,9,0,137,14,0,272,9,0,138,15,0,273,8,0,138,14,0,0,293,0,1,154,0,273,8,0,137,14,0,273,8,0,137,14,0,0,293,0,0,154,0,0,293,0,0,154,0,0,293,0,12,154,0,273,8,0,138,14,0,259,3,31,133,14,30
2017-07-19T23:59:59Z,154,293,291,153,293,154,291,153,5,19,0,0,0,0,0,0,1,292,1,153,0,293,0,154,0,0,0,0,0,0,0,0,262,15,4,128,19,15,270,13,0,135,29,0,272,10,0,136,16,0,269,13,0,135,29,0,270,11,0,136,17,0,271,10,0,136,16,0,271,10,0,136,16,0,0,293,0,1,154,0,270,11,0,135,17,0,270,11,0,135,17,0,0,293,0,0,154,0,0,293,0,0,154,0,0,293,0,11,154,0,271,10,0,136,16,0,259,3,31,133,14,30
2017-07-20T23:59:59Z,154,292,290,153,292,154,289,153,3,18,0,0,0,0,0,0,1,291,1,153,0,292,0,154,0,0,0,0,0,0,0,0,263,14,4,130,18,15,272,10,0,137,26,0,272,9,0,138,15,0,270,11,0,138,27,0,271,9,0,138,15,0,271,9,0,138,15,0,270,10,0,138,16,0,0,292,0,1,154,0,270,10,0,137,16,0,270,10,0,136,16,0,1,291,0,1,153,1,0,291,1,1,153,1,0,292,0,12,154,0,271,9,0,137,15,0,259,3,30,133,14,31
2017-07-21T23:59:58Z,153,292,290,152,292,153,290,152,5,20,0,0,0,0,0,0,0,292,0,153,0,292,0,153,0,0,0,0,0,0,0,0,264,12,5,130,17,16,273,10,0,138,28,0,272,9,0,138,16,0,271,10,0,138,28,0,273,7,0,139,15,0,273,7,0,138,15,0,273,8,0,139,16,0,1,291,0,2,153,0,272,8,0,137,15,0,271,9,0,136,16,0,0,292,0,0,153,0,0,292,0,0,153,0,0,292,0,11,153,0,273,7,0,138,15,0,258,3,31,132,14,32
2017-07-22T23:59:59Z,152,290,288,151,290,152,287,151,3,18,0,0,0,0,0,0,0,290,0,152,0,290,0,152,0,0,0,0,0,0,0,0,263,12,4,130,17,15,272,9,0,137,25,0,272,7,0,138,13,0,270,9,0,137,25,0,270,8,0,138,14,0,271,7,0,137,13,0,272,7,0,138,13,0,0,290,0,1,152,0,270,8,0,137,14,0,271,7,0,136,13,0,0,290,0,0,152,0,0,290,0,0,152,0,0,290,0,11,152,0,270,8,0,137,14,0,257,2,31,132,13,30
2017-07-23T23:59:59Z,152,290,288,151,290,152,288,151,4,18,0,0,0,0,0,0,0,290,0,152,0,290,0,152,0,0,0,0,0,0,0,0,265,11,3,131,16,14,271,10,0,137,26,0,271,8,0,138,14,0,269,10,0,137,26,0,270,8,0,138,14,0,271,7,0,137,13,0,271,8,0,138,14,0,0,290,0,1,152,0,271,7,0,138,14,0,271,7,0,137,14,0,0,290,0,0,152,0,0,290,0,0,152,0,0,290,0,11,152,0,271,7,0,138,14,0,257,2,31,132,13,30
2017-07-24T23:59:59Z,151,289,287,150,289,151,287,150,2,16,0,0,0,0,0,0,0,289,0,151,0,289,0,151,0,0,0,0,0,0,0,0,264,10,4,130,15,15,273,7,0,138,23,0,271,7,0,138,13,0,270,8,0,138,24,0,270,7,0,138,13,0,271,6,0,137,12,0,272,6,0,138,12,0,0,289,0,1,151,0,271,6,0,137,12,0,271,6,0,136,12,0,0,289,0,0,151,0,0,289,0,0,151,0,0,289,0,11,151,0,271,6,0,137,12,0,257,1,31,132,13,30
2017-07-25T23:59:59Z,155,294,292,154,294,155,291,154,3,20,0,0,0,0,0,0,0,294,0,155,0,294,0,155,0,0,0,0,0,0,0,0,266,13,4,132,19,15,274,11,0,139,28,0,275,8,0,140,15,0,272,11,0,139,28,0,274,8,0,140,15,0,274,8,0,139,15,0,275,8,0,140,15,0,0,294,0,1,155,0,274,8,0,139,15,0,273,9,0,138,16,0,0,294,0,0,155,0,0,294,0,0,155,0,0,294,0,11,155,0,273,9,0,139,16,0,261,2,31,135,14,31
2017-07-26T23:59:59Z,155,293,291,154,293,155,290,154,3,18,0,0,0,0,0,0,0,293,0,155,0,293,0,155,0,0,0,0,0,0,0,0,266,12,4,133,19,15,274,10,0,140,28,0,274,8,0,141,16,0,271,11,0,139,28,0,273,8,0,140,15,0,273,8,0,139,15,0,274,8,0,140,15,0,0,293,0,1,155,0,272,9,0,139,16,0,273,8,0,138,15,0,0,293,0,0,155,0,0,293,0,0,155,0,0,293,0,11,155,0,273,8,0,139,15,0,260,2,31,135,13,31
2017-07-27T23:59:59Z,150,287,284,149,287,150,284,149,2,16,0,0,0,0,0,0,0,286,0,150,1,286,1,150,0,0,0,0,0,0,0,0,261,11,3,129,16,14,268,9,1,136,25,1,267,8,0,136,14,0,267,8,1,136,24,1,266,8,0,136,14,0,266,8,0,135,14,0,268,7,0,136,13,0,0,286,0,1,150,1,266,8,0,135,14,0,267,7,0,134,13,0,0,286,0,0,150,0,0,286,0,0,150,0,0,287,0,12,150,0,266,8,1,135,14,1,256,1,30,131,12,30
2017-07-28T23:59:59Z,153,288,286,152,288,153,286,152,2,16,0,0,0,0,0,0,1,287,1,152,0,288,0,153,0,0,0,0,0,0,0,0,260,13,4,129,17,15,269,10,0,137,24,0,267,10,0,137,15,0,267,10,0,137,25,0,267,9,0,137,14,0,266,10,0,136,15,0,268,9,0,137,14,0,0,288,0,1,153,0,266,10,0,136,15,0,266,10,0,135,15,0,0,288,0,0,153,0,0,288,0,0,153,0,0,288,0,11,153,0,267,9,0,136,14,0,256,2,30,133,13,30
2017-07-29T23:59:59Z,153,287,285,152,287,153,285,152,4,17,0,0,0,0,0,0,1,286,1,152,0,287,0,153,0,0,0,0,0,0,0,0,258,14,4,129,18,14,267,11,0,136,25,0,266,10,0,137,15,0,265,11,0,136,25,0,265,10,0,137,15,1,266,9,0,136,14,0,267,9,0,137,14,0,0,287,0,1,153,0,265,10,0,136,15,0,266,9,0,135,14,0,0,287,0,0,153,0,0,287,0,0,153,0,0,287,0,10,153,1,267,8,0,137,14,0,254,3,30,132,14,29
2017-07-30T23:59:59Z,153,288,286,152,288,153,286,152,3,18,0,0,0,0,0,0,1,287,1,152,0,288,0,153,0,0,0,0,0,0,0,0,259,14,4,129,19,14,268,11,0,136,26,0,267,10,0,137,16,0,265,12,0,136,27,0,267,9,0,137,15,0,267,9,0,136,15,0,267,10,0,137,16,0,0,288,0,1,153,0,266,10,0,136,16,0,267,9,0,135,15,0,0,288,0,0,153,0,0,288,0,0,153,0,0,288,0,10,153,0,268,8,0,137,15,0,255,2,31,133,13,30
2017-07-31T23:59:59Z,152,287,285,151,287,152,285,151,2,16,0,0,0,0,0,0,1,286,1,151,0,287,0,152,0,0,0,0,0,0,0,0,258,13,5,129,18,15,267,11,0,136,26,0,267,9,0,137,15,0,266,10,0,136,25,0,266,9,0,137,15,0,267,8,0,136,14,0,268,8,0,137,14,0,0,287,0,1,152,0,267,8,0,136,14,0,266,9,0,135,15,0,0,287,0,0,152,0,0,287,0,0,152,0,0,287,0,10,152,0,266,9,0,136,15,0,254,2,31,133,13,29
2017-08-01T23:59:59Z,150,285,283,149,285,150,283,149,4,17,0,0,0,0,0,0,0,285,0,150,0,285,0,150,0,0,0,0,0,0,0,0,258,13,3,128,17,13,265,11,0,134,25,0,266,8,0,135,13,0,263,11,0,134,25,0,264,9,0,135,14,0,265,8,0,134,13,0,266,8,0,135,13,0,1,284,0,2,150,0,265,8,0,134,13,0,264,9,0,133,14,1,0,285,0,0,150,0,0,285,0,0,150,1,0,285,0,10,150,0,266,7,0,135,13,0,253,2,30,131,12,28
2017-08-02T23:59:59Z,148,281,279,147,281,148,279,147,4,17,0,0,0,0,0,0,0,281,0,148,0,281,0,148,0,0,0,0,0,0,0,0,256,12,2,127,16,12,261,11,0,132,25,0,262,8,0,133,13,0,259,11,0,132,25,0,261,8,0,133,13,0,261,8,0,132,13,0,262,8,0,133,13,0,0,281,0,1,148,0,260,9,0,132,14,0,260,9,0,131,14,0,0,281,0,0,148,0,0,281,0,0,148,0,0,281,0,10,148,0,261,8,0,133,14,0,249,2,30,129,13,28
2017-08-03T23:59:59Z,150,283,281,149,283,150,281,149,2,15,0,0,0,0,0,0,0,283,0,150,0,283,0,150,0,0,0,0,0,0,0,0,257,12,3,128,16,13,265,9,0,135,23,0,264,8,0,135,13,0,262,10,0,135,24,0,262,9,0,135,14,0,263,8,0,134,13,0,263,9,0,135,14,0,0,283,0,1,150,0,263,8,0,135,14,0,264,7,0,134,13,0,0,283,0,0,150,0,0,283,0,0,150,0,0,283,0,10,150,0,263,8,0,135,14,0,251,2,30,131,12,28
2017-08-04T23:59:58Z,151,284,282,150,284,151,281,150,4,17,0,0,0,0,0,0,0,284,0,151,0,284,0,151,0,0,0,0,0,0,0,0,258,12,3,129,16,13,265,10,0,135,24,0,264,9,0,136,14,0,263,10,0,135,24,0,263,9,0,136,14,0,264,8,0,135,13,0,265,8,0,136,13,0,0,284,0,1,151,0,263,9,0,135,14,0,264,8,0,134,13,0,0,284,0,0,151,0,0,284,0,0,151,0,0,284,0,10,151,0,263,9,0,135,14,0,252,2,30,132,12,28
2017-08-05T23:59:59Z,150,284,282,149,284,150,282,149,3,16,0,0,0,0,0,0,0,284,0,150,0,284,0,150,0,0,0,0,0,0,0,0,257,13,3,128,17,13,264,11,0,134,25,0,264,9,0,135,14,0,263,10,0,135,25,0,265,7,0,136,13,0,264,8,0,135,14,0,265,8,0,136,14,0,1,283,0,2,150,0,264,8,0,135,14,0,264,8,0,134,14,0,0,284,0,0,150,0,0,284,0,0,150,0,0,284,0,10,150,0,263,9,0,134,14,0,252,2,30,131,12,28
2017-08-06T23:59:59Z,150,283,281,149,283,150,281,149,2,16,0,0,0,0,0,0,1,282,1,149,0,283,0,150,0,0,0,0,0,0,0,0,258,12,2,129,18,13,265,9,0,135,25,0,262,10,0,134,16,0,262,10,0,134,25,0,262,9,0,134,15,0,261,10,0,133,16,0,262,10,0,134,16,0,0,283,0,1,150,0,262,9,0,134,16,0,262,9,0,132,15,0,0,283,0,0,150,0,0,283,0,0,150,0,0,283,0,11,150,0,261,10,0,133,16,0,252,2,29,131,11,28
2017-08-07T23:59:59Z,151,283,281,150,283,151,280,150,2,16,0,0,0,0,0,0,1,282,1,150,0,283,0,151,0,0,0,0,0,0,0,0,255,14,3,128,19,14,264,10,0,135,25,0,263,9,0,135,15,0,262,10,0,135,25,0,262,9,0,135,15,0,261,10,0,134,16,0,262,10,0,135,16,0,0,283,0,1,151,0,261,10,0,134,16,0,261,10,0,133,16,0,0,283,0,0,151,0,0,283,0,0,151,0,0,283,0,11,151,0,262,9,0,134,15,0,253,2,28,132,11,28
2017-08-08T23:59:59Z,151,285,283,150,285,151,283,150,1,16,0,0,0,0,0,0,0,285,0,151,0,285,0,151,0,0,0,0,0,0,0,0,260,11,3,130,17,14,267,9,0,136,25,0,266,8,0,137,15,0,265,9,0,136,25,0,266,7,0,137,14,0,266,7,0,136,14,0,266,8,0,137,15,0,0,285,0,1,151,0,266,7,0,136,14,0,265,8,0,135,15,0,0,285,0,0,151,0,0,285,0,0,151,0,0,285,0,11,151,0,266,7,0,136,14,0,253,1,31,132,11,29
2017-08-09T23:59:59Z,151,285,283,150,285,151,282,150,2,17,0,0,0,0,0,0,0,285,0,151,0,285,0,151,0,0,0,0,0,0,0,0,260,12,2,131,20,13,266,10,0,136,28,0,267,7,0,137,16,0,264,10,0,135,27,0,265,8,0,136,16,0,264,9,0,135,17,0,266,8,0,136,16,0,0,285,0,1,151,0,265,8,0,136,17,0,266,7,0,135,16,0,0,285,0,0,151,0,0,285,0,0,151,0,0,285,0,11,151,0,265,8,0,135,16,0,252,2,31,131,13,31
2017-08-10T23:59:59Z,149,280,278,148,280,149,278,148,3,17,0,0,0,0,0,0,0,280,0,149,0,280,0,149,0,0,0,0,0,0,0,0,253,12,4,126,18,16,262,9,0,134,25,1,261,8,0,134,15,0,260,9,0,134,25,0,260,8,0,134,15,0,259,9,0,133,16,0,260,9,0,134,16,0,0,280,0,1,149,0,260,8,0,133,15,0,259,9,0,132,16,0,0,280,0,0,149,0,0,280,0,0,149,0,0,280,0,11,149,0,260,8,0,133,15,0,246,2,32,128,12,30
2017-08-11T23:59:59Z,149,279,277,148,279,149,277,148,2,15,0,0,0,0,0,0,0,279,0,149,0,279,0,149,0,0,0,0,0,0,0,0,250,13,5,126,19,14,261,9,0,134,24,0,259,9,0,134,16,0,259,9,0,134,24,0,259,8,0,134,15,0,258,9,0,133,16,0,260,8,0,134,15,0,0,279,0,1,149,0,259,8,0,133,15,0,259,8,0,132,15,0,0,279,0,0,149,0,0,279,0,0,149,0,0,279,0,10,149,0,259,8,0,133,15,0,246,2,31,128,11,30
2017-08-12T23:59:59Z,151,281,278,150,280,151,278,150,2,16,0,0,0,0,0,0,0,280,0,151,0,280,0,151,0,0,0,0,0,0,0,0,254,11,4,129,19,15,262,9,0,137,26,1,261,8,0,137,17,1,260,9,0,137,26,1,260,8,0,137,17,1,260,8,0,136,17,1,261,8,0,137,17,1,1,279,0,2,151,1,260,8,0,135,16,1,259,9,0,134,17,1,0,280,0,0,151,1,0,280,0,0,151,1,0,281,0,10,151,1,259,9,0,135,17,0,247,2,31,130,12,31
2017-08-13T23:59:59Z,152,284,282,151,284,152,282,151,3,17,0,0,0,0,0,0,0,284,0,152,0,284,0,152,0,0,0,0,0,0,0,0,256,13,4,129,19,14,265,10,0,137,26,0,264,9,0,137,17,0,263,10,0,137,26,0,263,9,0,137,17,0,263,9,0,136,17,0,265,8,0,137,16,0,0,284,0,1,152,0,263,9,0,136,17,0,264,8,0,135,16,0,0,284,0,0,152,0,0,284,0,0,152,0,0,284,0,10,152,0,264,8,0,137,17,0,250,2,32,131,11,31
2017-08-14T23:59:59Z,155,288,286,154,288,155,286,154,3,16,0,0,0,0,0,0,0,288,0,155,0,288,0,155,0,0,0,0,0,0,0,0,261,12,4,132,18,14,269,10,0,139,25,0,268,9,0,140,16,0,267,10,0,139,25,0,268,8,0,140,15,0,268,8,0,139,15,0,269,8,0,140,15,0,0,288,0,1,155,0,268,8,0,139,15,0,267,9,0,138,16,0,0,288,0,0,155,0,0,288,0,0,155,0,0,288,0,10,155,0,268,8,0,139,15,0,253,3,32,133,12,30
2017-08-15T23:59:58Z,157,296,294,156,296,157,294,156,2,16,0,0,0,0,0,0,0,296,0,157,0,296,0,157,0,0,0,0,0,0,0,0,270,11,4,135,18,14,278,9,0,142,25,0,277,8,0,143,16,0,274,11,0,141,26,0,275,9,0,142,16,0,275,9,0,141,16,0,276,9,0,142,16,0,0,296,0,1,157,0,275,9,0,141,16,0,275,9,0,140,16,0,0,296,0,0,157,0,0,296,0,0,157,0,0,296,0,10,157,0,276,8,0,141,15,0,261,2,33,136,11,30
2017-08-16T23:59:59Z,155,293,291,154,293,155,291,154,2,15,0,0,0,0,0,0,0,293,0,155,0,293,1,155,0,0,0,0,0,0,0,0,266,12,4,133,19,14,275,9,0,141,25,0,275,7,0,141,15,0,274,8,0,141,24,0,274,7,0,141,15,0,273,8,0,140,16,0,275,7,0,141,15,0,0,293,0,1,155,0,274,7,0,140,15,0,274,7,0,139,15,0,0,293,0,1,155,0,0,293,0,0,155,0,0,293,0,10,155,0,273,8,0,140,16,0,259,2,32,134,12,31
2017-08-17T23:59:59Z,157,295,293,156,294,156,292,155,4,17,0,0,0,0,0,0,0,295,0,157,0,295,0,157,0,0,0,0,0,0,0,0,270,11,4,135,18,15,275,10,1,141,27,1,276,7,1,142,15,1,275,9,1,141,26,1,276,7,0,143,15,1,275,8,1,142,15,1,276,8,1,142,15,1,1,293,1,2,156,1,275,8,0,141,15,1,275,8,0,140,15,0,0,295,0,0,157,1,1,294,0,1,156,1,0,295,0,10,157,0,275,8,0,140,15,1,259,4,32,135,14,30